Torna al catalogo

STARLINK-34654

AttivoComunicazioniSSO
NORAD 64858·PAYLOAD·🇺🇸 United States

Lanciato Jul 19, 2025 da Vandenberg Space Force Base

Loading…

Prossimi Passaggi (prossime 24 ore)

TLE

AggiornatoSource: CelesTrak SupGP

Epoca: Sep 15, 2026, 03:02 UTC

1 64858C 25152S   26258.12687500 -.00020647  00000+0 -64082-3 0  2589
2 64858  97.2842 108.7222 0001891  95.8516  69.6270 15.33454489    17

Traccia STARLINK-34654 in tempo reale con AllMySat

Download on the App Store